Flag for Germany Weather past 2 weeks in Neustadt am Rübenberge, Lower Saxony, Germany

45 °F

Scattered clouds.

Feels Like: 39 °F
Forecast: 35 / 43 °F
Wind: 12 mph from West

Location: Wunstorf Airport

Current Time: Nov 26, 2015 at 2:11:19 PM

Latest Report: Nov 26, 2015 at 1:20 PM

Visibility: N/A

Pressure: 30.01 "Hg

Humidity: 81%

Dew point: 39 °F

Location of Neustadt am RübenbergeLocation

Historic Weather in Neustadt am Rübenberge — Graph


Neustadt am Rübenberge temperature yesterday

Maximum temperature yesterday: 43 °F (at 1:20 PM)
Minimum temperature yesterday: 36 °F (at 12:20 AM)
Average temperature yesterday: 40 °F

Past Weeks' High & Low Weather Summary

High59 °F (Nov 17, 11:20 PM)100% (Nov 15, 3:20 PM)30.27 "Hg (Nov 15, 3:20 PM)
Low32 °F (Nov 22, 4:20 PM)54% (Nov 13, 4:20 PM)29.33 "Hg (Nov 21, 5:20 AM)
Average46 °F84%29.83 "Hg
* Reported Nov 11 12:20 PM — Nov 26 12:20 PM, Neustadt am Rübenberge, Weather by CustomWeather, © 2015

Note: Actual official high and low records may vary slightly from our data, if they occured in-between our weather recording intervals... More about our weather records


Neustadt am Rübenberge weather history for previous 24 hours

Time TempWeatherWind HumidityBarometerVisibility
12:20 PM
Thu, Nov 26
43 °FScattered clouds.10 mph87%30.01 "HgN/A
11:20 AM41 °FPassing clouds.12 mph87%29.98 "HgN/A
10:20 AM41 °FPassing clouds.8 mph87%29.95 "HgN/A
9:20 AM39 °FPartly sunny.7 mph93%29.92 "HgN/A
8:20 AM39 °FPartly sunny.8 mph93%29.92 "Hg5 mi
7:20 AM37 °FPassing clouds.8 mph100%29.86 "HgN/A
6:49 AM37 °FPassing clouds.8 mph100%29.86 "HgN/A
6:20 AM37 °FFog.9 mph100%29.86 "Hg3 mi
5:20 AM39 °FFog.9 mph93%29.83 "Hg3 mi
4:20 AM39 °FChilly.7 mph93%29.80 "Hg2 mi
3:20 AM39 °FChilly.9 mph93%29.77 "Hg2 mi
2:20 AM39 °FChilly.9 mph100%29.74 "Hg2 mi
1:20 AM41 °FQuite cool.8 mph93%29.74 "Hg2 mi
12:20 AM41 °FQuite cool.7 mph93%29.71 "Hg2 mi
11:20 PM
Wed, Nov 25
41 °FQuite cool.9 mph93%29.71 "Hg2 mi
10:20 PM41 °FQuite cool.8 mph93%29.71 "Hg2 mi
9:20 PM41 °FQuite cool.7 mph93%29.68 "Hg2 mi
8:20 PM39 °FChilly.7 mph93%29.68 "Hg2 mi
7:20 PM41 °FPassing clouds.7 mph93%29.65 "HgN/A
6:20 PM41 °FPassing clouds.6 mph100%29.65 "HgN/A
5:20 PM43 °FPartly cloudy.5 mph93%29.62 "HgN/A
4:20 PM43 °FLight rain. Passing clouds.7 mph93%29.62 "Hg4 mi
3:20 PM43 °FLight rain. Broken clouds.8 mph93%29.62 "Hg4 mi
2:20 PM43 °FPartly sunny.8 mph93%29.59 "Hg5 mi
Weather by CustomWeather, © 2015

See weather overviewHow to use our weather pages